Regional Weather Roundup
Issued by NWS Newport/Morehead, NC

Current Version | Previous Version | Graphics & Text | Print | Product List | Glossary Off
Versions: 1 2 3 4 5 6 7 8 9 10 11 12 13 14 15 16 17 18 19 20 21 22 23 24 25 26 27 28 29 30 31 32 33 34 35 36 37 38 39 40 41 42 43 44 45 46 47 48 49 50

000
ASUS42 KMHX 291622
RWRMHX
WEATHER ROUNDUP FOR EASTERN NORTH CAROLINA
NATIONAL WEATHER SERVICE NEWPORT/MOREHEAD CITY NC
1200 PM EDT TUE JUL 29 2014

NOTE: "FAIR" INDICATES FEW OR NO CLOUDS BELOW 12,000 FEET
WITH NO SIGNIFICANT WEATHER AND/OR OBSTRUCTIONS TO VISIBILITY

NCZ015>017-031-032-045>047-102-103-291700-
NORTH COAST

CITY           SKY/WX    TMP DP  RH WIND       PRES   REMARKS
EDENTON        MOSUNNY   77  64  63 N7        29.93R
ELIZABETH CITY MOSUNNY   79  64  60 N6        29.92S
KITTY HAWK     SUNNY     77  66  68 N10       29.91S
MANTEO         NOT AVBL

$$

NCZ045>047-081-094-103-104-291700-
CENTRAL COAST

CITY           SKY/WX    TMP DP  RH WIND       PRES   REMARKS
FRISCO         PTSUNNY   81  68  64 NE8       29.90S
SWANQUARTER      N/A     79 N/A N/A NE3G9     29.88S

$$

NCZ095-097-098-100-101-291700-
SOUTHERN COAST

CITY           SKY/WX    TMP DP  RH WIND       PRES   REMARKS
BEAUFORT       PTSUNNY   82  68  62 NE10      29.91R
CEDAR ISLAND     N/A     79 N/A N/A N6        29.94S
JACKSONVILLE   SUNNY     80  63  55 N6        29.91S
NEWPORT        NOT AVBL
PINEY ISLAND   CLOUDY    80  68  66 N8        29.91R
WILMINGTON     MOSUNNY   83  65  54 VRB5      29.91S


$$

NCZ011>013-027>030-043-044-078>080-089-090>093-098-291700-
COASTAL PLAIN

CITY           SKY/WX    TMP DP  RH WIND       PRES   REMARKS
AHOSKIE        SUNNY     75  59  57 N9        29.94F
CLINTON        SUNNY     81  65  57 CALM      29.94S
ELIZABETHTOWN  SUNNY     80  62  54 CALM      29.93S
GOLDSBORO      SUNNY     77  63  61 N8        29.92F
GREENVILLE     SUNNY     79  63  57 N10       29.95S
HAVELOCK       PTSUNNY   80  65  59 NE8       29.92R
KENANSVILLE    SUNNY     79  60  51 N5        29.94S
KINSTON        SUNNY     79  61  53 N8        29.94S
NEW BERN       SUNNY     82  64  54 VRB3      29.93R
RICHLANDS      SUNNY     81  61  50 NW6       29.92S
ROANOKE RAPIDS NOT AVBL
ROCKY MOUNT    SUNNY     78  57  48 N8        29.95S
WASHINGTON     SUNNY     76  62  61 N8        29.93R
WHITEVILLE     SUNNY     80  64  58 NE5       29.93S

$$

AMZ130-135-150-152-154-156-158-170-250-252-270-ANZ085-086-088-633-658-670-291700-
MARINE OBSERVATIONS

STATION/POSITION TIME  TEMP    WIND        PRES    WAVE   SWELL
                       AIR SEA DIR/SP/G            HT/PER HT/PER
                 (UTC) (F)     (DEG/KT/KT) (MB)    (FT/S) (FT/S)
CHESAPEAKE LIGHT NOT AVBL
BUOY 44014       1600   74 79  350/ 10/ 12 1012.3    3/ 5   3/ 5
DUCK             1600   72 67  350/ 13/ 15 1012.3
2E DUCK          1600                        N/A     3/ 4
OREGON INLET     1600   77 78   20/  9/ 13 1012.8
BUOY 44095       1600      79                N/A     3/ 8
20E OREGON INLET NOT AVBL
HATTERAS CG      1600   79 80   50/  9/ 13 1013.0
DIAMOND BUOY     1600          VRB 12/ 16  1012.0    3/ 8   2/ 8
CAPE LOOKOUT     1600   79      10/  9/ 12 1012.4
BEAUFORT LAB     1600   78 81   10/ 10/ 14 1012.3
30 SE NEW RIVER  1600   78 81   30/ 14/ 16 1012.6    4/ 7   3/ 7
5 SE WRIGHTSVILL 1600   76 81   30/  6/  8   N/A
BUOY 41002       1458   78 81  180/ 19/ 23 1013.9    5/ 8   5/ 8
BUOY 41004       1600   82 84   50/  6/  8 1011.7    4/ 5   3/ 5

$$



USA.gov is the U.S. government's official web portal to all federal, state and local government web resources and services.